Погода в Николаевке

Украина / Одесская область     47°32′20″N   30°45′10″E
темп.,
°C
ветер,
м/с
пор.,
м/с
влажн.,
%
обл.,
%
осадки,
мм/ч
давл.,
гПа
погр.,
м
10 мая, пн
пн1000:00+8св00625 0.0 102610
03:00+7з11640 0.0 102610
06:00+6св11684 0.0 102710
09:00+12всв11530 0.0 1027377
12:00+16ссв22400 0.0 10261837
15:00+17ссв23372 0.0 10252019
18:00+17с33390 0.0 10231932
21:00+12св46611 0.0 102379
11 мая, вт
вт1100:00+9св35620 0.0 102370
03:00+7с346638 0.0 102350
06:00+7ссз48746 0.0 1022141
09:00+13с695512 0.0 1020551
12:00+15с685898 0.0 1019688
15:00+20с67555 0.0 10171110
18:00+19с5763100 0.1 1016952
21:00+15ссв4108191 0.3 1016337
12 мая, ср
ср1200:00+12в5987100 0.1 1016399
03:00+9всв48925 0.1 1015242
06:00+7св510930 0.0 1015313
09:00+10всв677142 0.0 1015907
12:00+13св5555100 0.1 10141529
15:00+14всв3450100 0.1 10131836
18:00+14в235110 0.0 10131262
21:00+11всв23616 0.0 101244
13 мая, чт
чт1300:00+9юв2269100 0.0 101325
03:00+9ю2275100 0.1 101258
06:00+9в3480100 0.1 101286
09:00+14вюв4663100 0.1 1011553
12:00+17вюв5760100 0.1 10101101
15:00+19юв586180 0.2 10091373
18:00+18ю61065100 0.1 1008330
21:00+13ю3782100 0.3 1008156
14 мая, пт
пт1400:00+10ю3490100 0.3 100871
03:00+11ю359036 0.3 1008122
06:00+10ю35956 0.0 1008116
09:00+16ююз347344 0.0 1009524
12:00+20ююз5657100 0.0 10091510
15:00+21ю5752100 0.0 10091889
18:00+20ю586088 0.0 1009547
21:00+15ю5108274 0.4 1010228